TimeCDT,TemperatureF,Dew PointF,Humidity,Sea Level PressureIn,VisibilityMPH,Wind Direction,Wind SpeedMPH,Gust SpeedMPH,PrecipitationIn,Events,Conditions,WindDirDegrees,DateUTC
12:15 AM,21.2,10.4,63,30.20,10.0,NW,25.3,33.4,N/A,,Clear,320,2014-03-22 05:15:00
12:35 AM,21.2,12.2,68,30.21,10.0,NW,23.0,31.1,N/A,,Clear,310,2014-03-22 05:35:00
12:55 AM,19.4,10.4,68,30.21,10.0,NW,24.2,28.8,N/A,,Clear,310,2014-03-22 05:55:00
1:15 AM,19.4,8.6,63,30.22,10.0,NW,23.0,31.1,N/A,,Clear,310,2014-03-22 06:15:00
1:35 AM,19.4,10.4,68,30.22,10.0,NNW,25.3,28.8,N/A,,Clear,330,2014-03-22 06:35:00
1:55 AM,19.4,8.6,63,30.23,10.0,NW,27.6,32.2,N/A,,Clear,310,2014-03-22 06:55:00
2:15 AM,19.4,8.6,63,30.23,10.0,NW,25.3,32.2,N/A,,Clear,320,2014-03-22 07:15:00
2:35 AM,17.6,8.6,68,30.24,10.0,NW,24.2,28.8,N/A,,Clear,310,2014-03-22 07:35:00
2:55 AM,17.6,8.6,68,30.24,10.0,NW,24.2,34.5,N/A,,Clear,310,2014-03-22 07:55:00
3:15 AM,17.6,8.6,68,30.24,10.0,NW,27.6,32.2,N/A,,Clear,320,2014-03-22 08:15:00
3:35 AM,17.6,6.8,63,30.24,10.0,NNW,25.3,33.4,N/A,,Clear,340,2014-03-22 08:35:00
3:55 AM,15.8,6.8,68,30.25,10.0,NNW,21.9,31.1,N/A,,Clear,330,2014-03-22 08:55:00
4:15 AM,15.8,6.8,68,30.27,10.0,NW,21.9,27.6,N/A,,Clear,320,2014-03-22 09:15:00
4:35 AM,15.8,6.8,68,30.28,10.0,NW,21.9,31.1,N/A,,Clear,310,2014-03-22 09:35:00
4:55 AM,15.8,5.0,62,30.29,10.0,NW,20.7,31.1,N/A,,Clear,320,2014-03-22 09:55:00
5:15 AM,15.8,5.0,62,30.30,10.0,NNW,20.7,-,N/A,,Clear,330,2014-03-22 10:15:00
5:35 AM,14.0,5.0,67,30.31,10.0,NW,24.2,27.6,N/A,,Clear,320,2014-03-22 10:35:00
5:55 AM,14.0,3.2,62,30.32,10.0,NW,24.2,31.1,N/A,,Clear,320,2014-03-22 10:55:00
6:15 AM,12.2,3.2,67,30.33,10.0,NW,19.6,-,N/A,,Clear,310,2014-03-22 11:15:00
6:35 AM,12.2,3.2,67,30.34,10.0,NW,16.1,27.6,N/A,,Clear,320,2014-03-22 11:35:00
6:55 AM,12.2,3.2,67,30.34,10.0,NW,21.9,28.8,N/A,,Clear,320,2014-03-22 11:55:00
7:15 AM,12.2,3.2,67,30.35,10.0,NW,21.9,28.8,N/A,,Clear,320,2014-03-22 12:15:00
7:35 AM,12.2,3.2,67,30.35,10.0,NNW,23.0,27.6,N/A,,Clear,330,2014-03-22 12:35:00
7:55 AM,12.2,3.2,67,30.36,10.0,NW,19.6,28.8,N/A,,Clear,320,2014-03-22 12:55:00
8:15 AM,12.2,3.2,67,30.38,10.0,NW,20.7,26.5,N/A,,Clear,320,2014-03-22 13:15:00
8:35 AM,14.0,5.0,67,30.38,10.0,NNW,19.6,25.3,N/A,,Clear,340,2014-03-22 13:35:00
8:55 AM,14.0,3.2,62,30.39,10.0,NW,19.6,-,N/A,,Clear,310,2014-03-22 13:55:00
9:15 AM,14.0,3.2,62,30.40,10.0,NNW,20.7,25.3,N/A,,Clear,330,2014-03-22 14:15:00
9:35 AM,15.8,5.0,62,30.41,10.0,NNW,20.7,24.2,N/A,,Clear,330,2014-03-22 14:35:00
9:55 AM,15.8,3.2,58,30.41,10.0,NNW,17.3,24.2,N/A,,Clear,330,2014-03-22 14:55:00
10:15 AM,15.8,3.2,58,30.42,10.0,NNW,18.4,25.3,N/A,,Partly Cloudy,330,2014-03-22 15:15:00
10:35 AM,15.8,5.0,62,30.43,10.0,NNW,19.6,-,N/A,,Clear,330,2014-03-22 15:35:00
10:55 AM,17.6,6.8,63,30.42,10.0,NNW,17.3,24.2,N/A,,Clear,340,2014-03-22 15:55:00
11:15 AM,17.6,6.8,63,30.42,10.0,NNW,20.7,26.5,N/A,,Clear,340,2014-03-22 16:15:00
11:35 AM,17.6,6.8,63,30.43,10.0,NNW,20.7,24.2,N/A,,Clear,340,2014-03-22 16:35:00
11:55 AM,19.4,8.6,63,30.44,10.0,NNW,18.4,21.9,N/A,,Partly Cloudy,340,2014-03-22 16:55:00
12:15 PM,19.4,6.8,58,30.44,10.0,NNW,16.1,24.2,N/A,,Scattered Clouds,340,2014-03-22 17:15:00
12:35 PM,19.4,8.6,63,30.44,10.0,NNW,17.3,23.0,N/A,,Partly Cloudy,340,2014-03-22 17:35:00
12:55 PM,19.4,8.6,63,30.43,10.0,North,20.7,26.5,N/A,,Scattered Clouds,350,2014-03-22 17:55:00
1:15 PM,19.4,8.6,63,30.44,10.0,NNW,17.3,25.3,N/A,,Scattered Clouds,340,2014-03-22 18:15:00
1:35 PM,21.2,8.6,58,30.43,10.0,NW,19.6,25.3,N/A,,Mostly Cloudy,320,2014-03-22 18:35:00
1:55 PM,21.2,8.6,58,30.43,10.0,NNW,16.1,26.5,N/A,,Mostly Cloudy,340,2014-03-22 18:55:00
2:15 PM,21.2,8.6,58,30.43,10.0,NNW,16.1,21.9,N/A,,Mostly Cloudy,330,2014-03-22 19:15:00
2:35 PM,21.2,8.6,58,30.44,10.0,NNW,15.0,19.6,N/A,,Mostly Cloudy,340,2014-03-22 19:35:00
2:55 PM,21.2,8.6,58,30.43,10.0,NNW,18.4,25.3,N/A,,Mostly Cloudy,330,2014-03-22 19:55:00
3:15 PM,21.2,8.6,58,30.43,10.0,NNW,17.3,21.9,N/A,,Mostly Cloudy,330,2014-03-22 20:15:00
3:35 PM,23.0,8.6,54,30.43,10.0,NNW,17.3,24.2,N/A,,Mostly Cloudy,340,2014-03-22 20:35:00
3:55 PM,21.2,8.6,58,30.43,10.0,NNW,18.4,-,N/A,,Mostly Cloudy,330,2014-03-22 20:55:00
4:15 PM,23.0,8.6,54,30.43,10.0,NNW,16.1,-,N/A,,Mostly Cloudy,330,2014-03-22 21:15:00
4:35 PM,21.2,8.6,58,30.43,10.0,NNW,18.4,-,N/A,,Mostly Cloudy,330,2014-03-22 21:35:00
4:55 PM,23.0,8.6,54,30.43,10.0,North,19.6,25.3,N/A,,Mostly Cloudy,350,2014-03-22 21:55:00
5:15 PM,21.2,8.6,58,30.43,10.0,NNW,18.4,-,N/A,,Mostly Cloudy,330,2014-03-22 22:15:00
5:35 PM,23.0,10.4,59,30.44,10.0,NNW,17.3,-,N/A,,Mostly Cloudy,340,2014-03-22 22:35:00
5:55 PM,21.2,10.4,63,30.44,10.0,NNW,17.3,28.8,N/A,,Overcast,340,2014-03-22 22:55:00
6:15 PM,21.2,10.4,63,30.44,10.0,NNW,15.0,-,N/A,,Overcast,340,2014-03-22 23:15:00
6:35 PM,21.2,10.4,63,30.44,10.0,NNW,18.4,-,N/A,,Overcast,330,2014-03-22 23:35:00
6:55 PM,21.2,8.6,58,30.44,10.0,NW,12.7,18.4,N/A,,Overcast,320,2014-03-22 23:55:00
7:15 PM,21.2,8.6,58,30.45,10.0,NNW,13.8,-,N/A,,Overcast,330,2014-03-23 00:15:00
7:35 PM,21.2,8.6,58,30.45,10.0,NNW,17.3,24.2,N/A,,Overcast,330,2014-03-23 00:35:00
7:55 PM,21.2,8.6,58,30.45,10.0,NW,16.1,20.7,N/A,,Mostly Cloudy,320,2014-03-23 00:55:00
8:15 PM,21.2,8.6,58,30.46,10.0,NNW,13.8,-,N/A,,Overcast,330,2014-03-23 01:15:00
8:35 PM,19.4,8.6,63,30.46,10.0,NNW,16.1,-,N/A,,Overcast,330,2014-03-23 01:35:00
8:55 PM,19.4,8.6,63,30.47,10.0,NNW,17.3,20.7,N/A,,Overcast,340,2014-03-23 01:55:00
9:15 PM,19.4,6.8,58,30.48,10.0,NNW,16.1,19.6,N/A,,Scattered Clouds,330,2014-03-23 02:15:00
9:35 PM,19.4,6.8,58,30.48,10.0,NNW,13.8,-,N/A,,Clear,330,2014-03-23 02:35:00
9:55 PM,19.4,6.8,58,30.48,10.0,NNW,12.7,-,N/A,,Clear,330,2014-03-23 02:55:00
10:15 PM,17.6,6.8,63,30.49,10.0,NNW,16.1,19.6,N/A,,Clear,330,2014-03-23 03:15:00
10:35 PM,17.6,8.6,68,30.50,10.0,NNW,12.7,-,N/A,,Clear,340,2014-03-23 03:35:00
10:55 PM,17.6,6.8,63,30.50,10.0,NNW,12.7,-,N/A,,Clear,340,2014-03-23 03:55:00
11:15 PM,17.6,6.8,63,30.50,10.0,NNW,13.8,-,N/A,,Clear,330,2014-03-23 04:15:00
11:35 PM,17.6,8.6,68,30.51,10.0,NNW,13.8,18.4,N/A,,Clear,330,2014-03-23 04:35:00
11:55 PM,17.6,6.8,63,30.51,10.0,NNW,11.5,-,N/A,,Clear,330,2014-03-23 04:55:00